Regional Weather Roundup
Issued by NWS

Home | Current Version | Previous Version | Graphics & Text | Print | Product List | Glossary Off
Versions: 1 2 3 4 5 6 7 8 9 10 11 12 13 14 15 16 17 18 19 20 21 22 23 24 25 26 27 28 29 30 31 32 33 34 35 36 37 38 39 40 41 42 43 44 45 46 47 48 49 50

000
ASUS43 KFSD 252110
RWRSD

WEATHER ROUNDUP FOR SOUTH DAKOTA
NATIONAL WEATHER SERVICE SIOUX FALLS SD
300 PM CST TUE NOV 25 2014

NOTE: "FAIR" INDICATES FEW OR NO CLOUDS BELOW 12,000 FEET WITH NO
SIGNIFICANT WEATHER AND/OR OBSTRUCTIONS TO VISIBILITY.


SDZ001>005-009-010-012>017-252200-
NORTHWEST AND NORTH CENTRAL SOUTH DAKOTA

CITY           SKY/WX    TMP DP  RH WIND       PRES   REMARKS
BUFFALO          N/A     38  31  76 NW32G40   29.67R
FAITH            N/A     38  33  82 NW22      29.72S
MOBRIDGE       LGT SNOW  33  31  92 S13       29.71F VSB 3/4 WCI  24
$$

SDZ012>016-024>037-041>051-057-063-072>074-252200-
SOUTHWEST AND SOUTH CENTRAL SOUTH DAKOTA

CITY           SKY/WX    TMP DP  RH WIND       PRES   REMARKS
RAPID CTY ARPT CLOUDY    38  30  73 NW21      29.77R
PIERRE         CLOUDY    36  28  73 SE10      29.74F
CUSTER         CLOUDY    30  24  78 W8        29.74R WCI  22
ELLSWORTH AFB  CLOUDY    37  31  77 NW24      29.75
PHILIP         LGT RAIN  35  32  88 W10       29.77R WCI  27
PINE RIDGE     CLOUDY    37  30  75 W13       29.79R
SPEARFISH      LGT RAIN  34  30  86 NW18G30   29.81R WCI  23
WINNER         CLOUDY    42  22  44 SW8       29.77F
$$

SDZ004>011-016>023-039-040-252200-
NORTHEAST SOUTH DAKOTA

CITY           SKY/WX    TMP DP  RH WIND       PRES   REMARKS
ABERDEEN       CLOUDY    32  25  75 SE13      29.84F WCI  22
WATERTOWN      PTSUNNY   31  23  72 S10       29.84F WCI  22
SISSETON         N/A     29  22  75 SE10      29.88F WCI  20
$$

SDZ017-020-022-023-036>040-048>070-252200-
SOUTHEAST SOUTH DAKOTA

CITY           SKY/WX    TMP DP  RH WIND       PRES   REMARKS
SIOUX FALLS    CLOUDY    36  23  59 S13       29.89F
HURON          CLOUDY    36  26  67 SE9       29.82F
CHAMBERLAIN    CLOUDY    39  26  60 S5        29.78F
MITCHELL       CLOUDY    40  27  59 SE16      29.83F
YANKTON        CLOUDY    43  27  52 S12       29.88F
$$

ABBREVIATIONS USED IN REMARKS
   TC - TEMPERATURE IN CELSIUS
  WCI - WIND CHILL INDEX
   HX - HEAT INDEX
  VSB - VISIBILITY




USA.gov is the U.S. government's official web portal to all federal, state and local government web resources and services.